Lorain / Elyria, OH

8:48 PM EDT on September 19, 2017 (GMT -0400)
Lorain County Regional

Weather History for KLPR - November, 2013

Change the Weather History Date:

Tuesday, November 5, 2013

  Actual Average (KCLE) Record (KCLE)
Temperature  
Mean Temperature 53 °F -  
Max Temperature 61 °F 51 °F 76 °F (2015)
Min Temperature 45 °F 36 °F 16 °F (1991)
Degree Days  
Heating Degree Days 12    
Growing Degree Days 3 (Base 50)    
Moisture  
Dew Point 38 °F    
Average Humidity 57    
Maximum Humidity 64    
Minimum Humidity 50    
Precipitation  
Precipitation 0.00 in - - ()
Sea Level Pressure  
Sea Level Pressure 30.36 in    
Wind  
Wind Speed 9 mph (South)    
Max Wind Speed 13 mph    
Max Gust Speed -    
Visibility 10 miles    
Events      
Averages and records for this station are not official NWS values.
T = Trace of Precipitation, MM = Missing Value Source: NWS Daily Summary

Daily Weather History Graph

Daily Weather History Graph

Search for Another Location

Airport or City:

Trip Planner

Search our weather history database for the weather conditions in past years. The results will help you decide how hot, cold, wet, or windy it might be!

Date:

Astronomy

Nov. 05, 2013 Rise Set
Actual Time 7:05 AM EST 5:18 PM EST
Civil Twilight 6:36 AM EST 5:47 PM EST
Nautical Twilight 6:03 AM EST 6:20 PM EST
Astronomical Twilight 5:31 AM EST 6:52 PM EST
Moon 9:19 AM EST (11/5) 7:18 PM EST (11/5)
Length of Visible Light 11h 11m
Length of Day
10h 13m
Waxing Crescent, 6% of the Moon is Illuminated
Nov 5
Waxing Crescent
Nov 10
First Quarter
Nov 17
Full
Nov 25
Last Quarter
Dec 2
New

Hourly Weather History & Observations

Time (EST) Temp. Windchill Dew Point Humidity Pressure Visibility Wind Dir Wind Speed Gust Speed Precip Events Conditions
12:53 AM 45.0 °F 39.7 °F 30.9 °F 58% 30.38 in 10.0 mi South 10.4 mph - N/A   Clear
1:53 AM 45.0 °F 38.9 °F 30.9 °F 58% 30.38 in 10.0 mi South 12.7 mph - N/A   Clear
2:53 AM 45.0 °F 39.3 °F 30.9 °F 58% 30.39 in 10.0 mi South 11.5 mph - N/A   Clear
3:53 AM 45.0 °F 39.7 °F 32.0 °F 60% 30.39 in 10.0 mi South 10.4 mph - N/A   Partly Cloudy
4:53 AM 46.0 °F 41.4 °F 33.1 °F 61% 30.40 in 10.0 mi South 9.2 mph - N/A   Partly Cloudy
5:53 AM 46.9 °F - 33.1 °F 59% 30.40 in 10.0 mi South 8.1 mph - N/A   Overcast
6:53 AM 46.9 °F - 34.0 °F 61% 30.41 in 10.0 mi South 6.9 mph - N/A   Scattered Clouds
7:53 AM 48.0 °F - 35.1 °F 61% 30.41 in 10.0 mi South 10.4 mph - N/A   Clear
8:53 AM 50.0 °F - 36.0 °F 59% 30.42 in 10.0 mi South 5.8 mph - N/A   Mostly Cloudy
9:53 AM 52.0 °F - 36.0 °F 54% 30.42 in 10.0 mi SSW 9.2 mph - N/A   Partly Cloudy
10:53 AM 55.9 °F - 39.0 °F 53% 30.42 in 10.0 mi SW 6.9 mph - N/A   Partly Cloudy
11:53 AM 57.0 °F - 41.0 °F 55% 30.40 in 10.0 mi South 8.1 mph - N/A   Partly Cloudy
12:53 PM 59.0 °F - 42.1 °F 53% 30.38 in 10.0 mi SW 8.1 mph - N/A   Mostly Cloudy
1:53 PM 61.0 °F - 42.1 °F 50% 30.36 in 10.0 mi SSW 9.2 mph - N/A   Unknown
2:53 PM 61.0 °F - 42.1 °F 50% 30.35 in 10.0 mi SW 9.2 mph - N/A   Clear
3:53 PM 60.1 °F - 42.1 °F 51% 30.34 in 10.0 mi SSW 6.9 mph - N/A   Clear
4:53 PM 57.9 °F - 43.0 °F 58% 30.35 in 10.0 mi SSW 3.5 mph - N/A   Clear
5:53 PM 55.9 °F - 42.1 °F 60% 30.33 in 10.0 mi SSE 9.2 mph - N/A   Clear
6:53 PM 55.9 °F - 41.0 °F 57% 30.31 in 10.0 mi SE 6.9 mph - N/A   Clear
7:53 PM 54.0 °F - 41.0 °F 62% 30.33 in 10.0 mi South 5.8 mph - N/A   Clear
8:53 PM 53.1 °F - 41.0 °F 64% 30.31 in 10.0 mi South 6.9 mph - N/A   Clear
9:53 PM 54.0 °F - 39.9 °F 59% 30.30 in 10.0 mi South 10.4 mph - N/A   Clear
10:53 PM 54.0 °F - 39.0 °F 57% 30.28 in 10.0 mi South 11.5 mph - N/A   Clear
11:53 PM 53.1 °F - 37.9 °F 57% 30.26 in 10.0 mi South 10.4 mph - N/A   Scattered Clouds